Back to catalog

STARLINK-38151

AliveCommunicationsSSO
NORAD 100168·PAYLOAD·🇺🇸 United States

Launched Jul 25, 2026 from Vandenberg Space Force Base

Loading…

Next Passes (next 24 hours)

TLE

FreshSource: Space-Track

Epoch: Sep 12, 2026, 14:52 UTC

1 A0168U 26171W   26255.61998490 -.00035063  00000-0 -64794-3 0  9990
2 A0168  97.2829 288.1003 0001023  43.6427 316.4905 15.49099452  7685

Track STARLINK-38151 in real time with AllMySat

Download on the App Store